Location: Caltech
(34.1382°N, 118.1253°W)
Time: 00:01:19
(UTC-07:00)

ITAMSAT 1 - Visible Passes

Search period start: 04 May 2015 00:00
Search period end: 14 May 2015 00:00
Orbit: 784 x 798 km, 98.7° (Epoch: 03 May)

Date Brightness Start Highest point End Pass type
(mag) Time Alt. Az. Time Alt. Az. Time Alt. Az.
04 May 8.6 02:50:05 10° NNE 02:54:29 41° E 02:54:29 41° E visible
04 May 9.1 04:30:29 10° NNW 04:34:13 20° WNW 04:35:14 19° W visible
05 May 9.6 02:21:42 10° NE 02:24:59 21° E 02:24:59 21° E visible
05 May 8.3 04:00:25 10° N 04:05:11 37° WNW 04:05:44 36° W visible
06 May 7.5 03:30:53 10° N 03:36:05 74° WNW 03:36:14 73° W visible
07 May 8.1 03:01:44 10° NNE 03:06:43 56° E 03:06:43 56° E visible
07 May 9.4 04:42:53 10° NNW 04:45:56 15° WNW 04:47:28 13° W visible
08 May 9.2 02:33:05 10° NE 02:37:12 28° E 02:37:12 28° E visible
08 May 8.6 04:12:28 10° N 04:16:56 29° WNW 04:17:57 27° W visible
09 May 10.1 02:05:25 10° ENE 02:07:41 14° E 02:07:41 14° E visible
09 May 7.7 03:42:46 10° N 03:47:52 56° WNW 03:48:26 53° W visible
10 May 7.6 03:13:28 10° NNE 03:18:41 74° ESE 03:18:54 73° SE visible
10 May 9.7 04:55:44 10° NW 04:57:39 12° WNW 04:59:14 10° W visible
11 May 8.7 02:44:36 10° NNE 02:49:22 37° E 02:49:23 37° E visible
11 May 9.0 04:24:38 10° NNW 04:28:41 23° WNW 04:30:09 20° W visible
12 May 9.7 02:16:24 10° NE 02:19:52 19° E 02:19:52 19° E visible
12 May 8.1 03:54:43 10° N 03:59:38 43° WNW 04:00:37 38° W visible
13 May 7.5 03:25:16 10° NNE 03:30:29 85° WNW 03:31:06 70° SSW visible
